CST,Max TemperatureF,Mean TemperatureF,Min TemperatureF,Max Dew PointF,MeanDew PointF,Min DewpointF,Max Humidity, Mean Humidity, Min Humidity, Max Sea Level PressureIn, Mean Sea Level PressureIn, Min Sea Level PressureIn, Max VisibilityMiles, Mean VisibilityMiles, Min VisibilityMiles, Max Wind SpeedMPH, Mean Wind SpeedMPH, Max Gust SpeedMPH,PrecipitationIn, CloudCover, Events, WindDirDegrees
2013-1-1,19,0,-20,16,0,-26,93,86,70,30.20,30.05,29.89,10,9,3,13,3,16,0.00,6,Snow,218
2013-1-2,21,14,6,19,11,3,100,89,79,30.10,29.92,29.83,10,8,1,16,9,21,0.01,8,Snow,256
2013-1-3,15,6,-2,10,3,-8,92,84,72,30.21,30.11,29.93,10,10,7,15,10,21,0.00,4,Snow,265
2013-1-4,26,16,6,16,10,3,92,80,63,30.06,30.00,29.91,10,10,10,17,9,22,0.00,0,,271
2013-1-5,19,10,0,18,5,-6,100,88,78,30.05,29.93,29.84,10,8,0,12,3,17,0.00,1,Fog,313
2013-1-6,14,8,3,12,8,0,100,92,85,30.15,30.05,29.80,10,8,4,12,6,,0.00,6,Snow,199
2013-1-7,32,22,12,21,17,10,100,80,64,29.89,29.80,29.72,10,10,10,15,9,18,0.00,0,,237
2013-1-8,30,16,1,25,15,-2,100,88,74,29.89,29.78,29.65,10,8,0,17,4,22,0.00,4,Fog-Snow,173
2013-1-9,30,22,14,25,17,10,86,78,64,30.26,30.08,29.78,10,10,10,26,12,34,0.00,4,,238
2013-1-10,39,29,19,28,23,16,93,68,48,30.11,29.96,29.64,10,10,7,26,13,34,0.02,1,Rain,167
2013-1-11,30,30,23,30,30,23,100,98,93,29.60,29.44,29.32,10,2,0,9,5,,0.04,8,Fog-Rain-Snow,139
2013-1-12,19,7,-5,18,-1,-11,100,82,66,30.06,29.77,29.33,10,7,2,18,13,25,0.00,6,Snow,292
2013-1-13,5,-2,-9,-2,-6,-13,92,80,66,30.15,30.08,30.02,10,10,10,13,8,17,0.00,2,Snow,290
2013-1-14,6,1,-4,1,-4,-8,85,78,67,30.30,30.23,30.16,10,10,7,16,7,20,0.00,5,Snow,231
2013-1-15,19,10,0,14,4,-2,92,76,58,30.15,29.96,29.61,10,9,2,15,7,22,0.00,5,Snow,198
2013-1-16,28,12,-5,27,6,-11,100,74,47,30.24,29.85,29.53,10,9,2,18,12,26,0.00,4,Snow,292
2013-1-17,10,3,-4,3,-3,-13,85,72,55,30.32,30.27,30.15,10,9,2,14,5,20,0.00,5,Snow,271
2013-1-18,28,18,8,21,14,3,93,85,69,30.14,29.80,29.68,10,9,2,14,6,,0.01,4,Snow,171
2013-1-19,26,8,-9,25,6,-15,100,84,66,30.24,29.86,29.63,10,6,2,36,10,45,0.00,5,Snow,290
2013-1-20,0,-7,-14,-8,-14,-24,84,74,60,30.32,30.26,30.22,10,8,2,20,10,29,0.00,3,Snow,292
2013-1-21,-11,-16,-20,-20,-23,-26,84,70,64,30.26,30.22,30.19,10,10,7,21,11,28,0.00,0,,288
2013-1-22,0,-12,-23,-6,-21,-29,84,75,65,30.27,30.24,30.14,10,10,10,9,4,,0.00,1,,252
2013-1-23,1,-8,-16,0,-15,-24,92,65,54,30.57,30.31,30.10,10,9,3,24,11,30,0.00,1,,319
2013-1-24,6,-5,-16,0,-11,-24,78,69,64,30.57,30.25,30.00,10,10,7,18,10,25,0.00,6,Snow,135
2013-1-25,10,0,-11,5,-6,-15,85,75,66,30.26,30.05,29.83,10,8,3,22,12,30,0.00,4,Snow,284
2013-1-26,10,-2,-14,5,-5,-18,84,76,67,30.26,30.14,30.01,10,10,10,17,5,20,0.00,3,,130
2013-1-27,26,17,8,23,14,3,93,78,68,30.01,29.86,29.76,10,9,5,10,7,,0.00,4,,114
2013-1-28,30,27,24,28,27,23,100,97,93,29.80,29.76,29.63,7,2,0,9,2,,0.14,8,Fog-Snow,166
2013-1-29,28,20,12,28,20,10,100,91,86,29.82,29.70,29.57,10,7,0,16,9,21,0.02,8,Snow,330
2013-1-30,12,5,-2,9,0,-9,92,80,71,29.80,29.75,29.72,10,9,2,21,14,25,0.00,8,Snow,313
2013-1-31,-2,-11,-20,-9,-17,-26,84,73,64,30.20,30.03,29.77,10,7,2,23,15,29,0.00,3,Snow,300